This is the latest recevied weather packets stored in our database for station/object K5UTC. If no packets are shown the sender has not sent any weather packets the latest 10 day(s).
| Time | Temp. | Humidity | Pressure | Rain* | Wind** | Luminosity | Snow |
|---|---|---|---|---|---|---|---|
| 1778169281 | 17.78° C | 72% | 1014.1 hPa | 0 mm | - | 579 W/m² | - |
| 1778168979 | 17.78° C | 73% | 1014.1 hPa | 0 mm | - | 476 W/m² | - |
| 1778168675 | 17.78° C | 72% | 1013.9 hPa | 0 mm | - | 462 W/m² | - |
| 1778168372 | 17.78° C | 73% | 1014.1 hPa | 0 mm | - | 443 W/m² | - |
| 1778168069 | 17.78° C | 78% | 1014.2 hPa | 0 mm | - | 492 W/m² | - |
| 1778167765 | 17.78° C | 76% | 1014 hPa | 0 mm | - | 502 W/m² | - |
| 1778167461 | 17.22° C | 76% | 1014.1 hPa | 0 mm | - | 628 W/m² | - |
| 1778167157 | 17.22° C | 76% | 1014 hPa | 0 mm | - | 535 W/m² | - |
| 1778166854 | 17.22° C | 78% | 1014.1 hPa | 0 mm | - | 503 W/m² | - |
| 1778166551 | 16.67° C | 79% | 1013.9 hPa | 0 mm | - | 482 W/m² | - |
| 1778166248 | 16.67° C | 80% | 1014 hPa | 0 mm | - | 482 W/m² | - |
| 1778165944 | 16.67° C | 83% | 1014 hPa | 0 mm | - | 413 W/m² | - |
| 1778165640 | 15.56° C | 84% | 1014 hPa | 0 mm | - | 358 W/m² | - |
| 1778165337 | 15° C | 87% | 1013.9 hPa | 0 mm | - | 183 W/m² | - |
| 1778165035 | 15° C | 87% | 1014 hPa | 0 mm | - | 219 W/m² | - |
| 1778164731 | 15° C | 87% | 1014 hPa | 0 mm | - | 186 W/m² | - |
| 1778164429 | 15° C | 86% | 1013.8 hPa | 0 mm | - | 199 W/m² | - |
| 1778164125 | 15° C | 86% | 1013.9 hPa | 0 mm | - | 140 W/m² | - |
| 1778163821 | 15° C | 89% | 1013.8 hPa | 0 mm | - | 196 W/m² | - |
| 1778163518 | 15° C | 89% | 1013.8 hPa | 0 mm | - | 147 W/m² | - |
| 1778163214 | 15° C | 90% | 1013.8 hPa | 0 mm | - | 158 W/m² | - |
| 1778162911 | 15° C | 90% | 1013.7 hPa | 0 mm | - | 167 W/m² | - |
| 1778162608 | 15° C | 90% | 1013.8 hPa | 0 mm | - | 169 W/m² | - |
| 1778162306 | 14.44° C | 90% | 1013.6 hPa | 0 mm | - | 161 W/m² | - |
| 1778162002 | 14.44° C | 90% | 1013.6 hPa | 0 mm | - | 171 W/m² | - |
* Rain latest hour (hover to see other rain measurements)
** Current wind speed in m/s (hover to see current wind gust speed)